Madison, SD

12:53 PM CDT on June 26, 2017 (GMT -0500)
Madison Municipal

Weather History for KMDS - February, 2014

Change the Weather History Date:

Monday, February 10, 2014

  Actual Average Record
Temperature  
Mean Temperature -8 °F -  
Max Temperature 1 °F 25 °F 57 °F (2017)
Min Temperature -16 °F 7 °F -16 °F (2014)
Degree Days  
Heating Degree Days 72    
Moisture  
Dew Point -11 °F    
Average Humidity 79    
Maximum Humidity 92    
Minimum Humidity 71    
Precipitation  
Precipitation 0.00 in - - ()
Sea Level Pressure  
Sea Level Pressure 30.38 in    
Wind  
Wind Speed 5 mph (NNW)    
Max Wind Speed 8 mph    
Max Gust Speed -    
Visibility 10 miles    
Events      
Averages and records for this station are not official NWS values.
T = Trace of Precipitation, MM = Missing Value Source: NWS Daily Summary

Daily Weather History Graph

Daily Weather History Graph

Search for Another Location

Airport or City:

Trip Planner

Search our weather history database for the weather conditions in past years. The results will help you decide how hot, cold, wet, or windy it might be!

Date:

Astronomy

Feb. 10, 2014 Rise Set
Actual Time 7:34 AM CST 5:51 PM CST
Civil Twilight 7:04 AM CST 6:21 PM CST
Nautical Twilight 6:30 AM CST 6:55 PM CST
Astronomical Twilight 5:57 AM CST 7:28 PM CST
Moon 2:17 PM CST (2/10) 4:32 AM CST (2/10)
Length of Visible Light 11h 16m
Length of Day
10h 16m
Waxing Gibbous, 85% of the Moon is Illuminated
Feb 10
Waxing Gibbous
Feb 14
Full
Feb 22
Last Quarter
Mar 1
New
Mar 8
First Quarter

Hourly Weather History & Observations

Time (CST) Temp. Windchill Dew Point Humidity Pressure Visibility Wind Dir Wind Speed Gust Speed Precip Events Conditions
12:05 AM -7.6 °F -22.1 °F -11.2 °F 84% 30.38 in 10.0 mi WNW 6.9 mph - N/A   Clear
12:25 AM -9.4 °F -24.3 °F -13.0 °F 84% 30.38 in 10.0 mi NW 6.9 mph - N/A   Clear
12:45 AM -9.4 °F -22.7 °F -13.0 °F 84% 30.38 in 10.0 mi West 5.8 mph - N/A   Clear
1:05 AM -9.4 °F -22.7 °F -13.0 °F 84% 30.37 in 10.0 mi WNW 5.8 mph - N/A   Clear
1:25 AM -13.0 °F -28.6 °F -16.6 °F 84% 30.37 in 10.0 mi NW 6.9 mph - N/A   Clear
1:45 AM -9.4 °F -22.7 °F -13.0 °F 84% 30.38 in 10.0 mi West 5.8 mph - N/A   Clear
2:05 AM -11.2 °F -23.0 °F -14.8 °F 84% 30.38 in 10.0 mi West 4.6 mph - N/A   Clear
2:25 AM -11.2 °F -24.8 °F -16.6 °F 77% 30.38 in 10.0 mi WNW 5.8 mph - N/A   Clear
2:45 AM -13.0 °F -30.0 °F -16.6 °F 84% 30.39 in 10.0 mi NW 8.1 mph - N/A   Clear
3:05 AM -11.2 °F -24.8 °F -16.6 °F 77% 30.39 in 10.0 mi WNW 5.8 mph - N/A   Clear
3:25 AM -13.0 °F -30.0 °F -16.6 °F 84% 30.38 in 10.0 mi NW 8.1 mph - N/A   Clear
3:45 AM -14.8 °F -32.2 °F -18.4 °F 84% 30.38 in 10.0 mi NW 8.1 mph - N/A   Clear
4:05 AM -13.0 °F -28.6 °F -16.6 °F 84% 30.37 in 10.0 mi NNW 6.9 mph - N/A   Clear
4:25 AM -13.0 °F -30.0 °F -16.6 °F 84% 30.37 in 10.0 mi NNW 8.1 mph - N/A   Clear
4:45 AM -13.0 °F -30.0 °F -18.4 °F 77% 30.37 in 10.0 mi NNW 8.1 mph - N/A   Clear
5:05 AM -13.0 °F -30.0 °F -16.6 °F 84% 30.37 in 10.0 mi NNW 8.1 mph - N/A   Clear
5:25 AM -13.0 °F -28.6 °F -16.6 °F 84% 30.37 in 10.0 mi NW 6.9 mph - N/A   Clear
5:45 AM -13.0 °F -30.0 °F -16.6 °F 84% 30.37 in 10.0 mi NW 8.1 mph - N/A   Clear
6:05 AM -13.0 °F -28.6 °F -18.4 °F 77% 30.38 in 10.0 mi NW 6.9 mph - N/A   Clear
6:25 AM -16.6 °F -34.4 °F -20.2 °F 84% 30.37 in 10.0 mi NW 8.1 mph - N/A   Clear
6:45 AM -16.6 °F -34.4 °F -20.2 °F 84% 30.38 in 10.0 mi NW 8.1 mph - N/A   Clear
7:05 AM -16.6 °F -31.3 °F -20.2 °F 84% 30.38 in 10.0 mi NW 5.8 mph - N/A   Clear
7:25 AM -13.0 °F -27.0 °F -18.4 °F 77% 30.38 in 10.0 mi NW 5.8 mph - N/A   Clear
7:45 AM -14.8 °F -27.2 °F -18.4 °F 84% 30.38 in 4.0 mi NNW 4.6 mph - N/A   Clear
8:05 AM -13.0 °F -25.1 °F -16.6 °F 84% 30.39 in 3.0 mi NW 4.6 mph - N/A   Clear
8:25 AM -11.2 °F -23.0 °F -14.8 °F 84% 30.40 in 10.0 mi NNW 4.6 mph - N/A   Clear
8:45 AM -11.2 °F - -14.8 °F 84% 30.41 in 10.0 mi Calm Calm - N/A   Clear
9:05 AM -9.4 °F - -13.0 °F 84% 30.41 in 10.0 mi Calm Calm - N/A   Clear
9:25 AM -5.8 °F - -9.4 °F 84% 30.41 in 10.0 mi Calm Calm - N/A   Clear
9:45 AM -7.6 °F - -9.4 °F 92% 30.41 in 10.0 mi Calm Calm - N/A   Clear
10:05 AM -5.8 °F - -9.4 °F 84% 30.42 in 10.0 mi Calm Calm - N/A   Clear
10:25 AM -4.0 °F - -7.6 °F 85% 30.41 in 10.0 mi Calm Calm - N/A   Clear
10:45 AM -2.2 °F - -9.4 °F 71% 30.41 in 10.0 mi Calm Calm - N/A   Clear
11:05 AM -2.2 °F - -9.4 °F 71% 30.41 in 10.0 mi Calm Calm - N/A   Clear
11:25 AM -2.2 °F - -7.6 °F 78% 30.41 in 10.0 mi Calm Calm - N/A   Clear
11:45 AM -0.4 °F -8.3 °F -7.6 °F 72% 30.41 in 10.0 mi NNW 3.5 mph - N/A   Clear
12:05 PM -0.4 °F -8.3 °F -7.6 °F 72% 30.41 in 10.0 mi NNW 3.5 mph - N/A   Clear
12:25 PM -0.4 °F -8.3 °F -7.6 °F 72% 30.40 in 10.0 mi West 3.5 mph - N/A   Clear
12:45 PM -0.4 °F - -7.6 °F 72% 30.40 in 10.0 mi Calm Calm - N/A   Clear
1:05 PM -0.4 °F - -7.6 °F 72% 30.39 in 10.0 mi Calm Calm - N/A   Clear
1:25 PM 1.4 °F - -5.8 °F 72% 30.38 in 10.0 mi Calm Calm - N/A   Clear
1:45 PM 1.4 °F - -5.8 °F 72% 30.38 in 10.0 mi Calm Calm - N/A   Clear
2:05 PM 1.4 °F -6.2 °F -5.8 °F 72% 30.37 in 10.0 mi NW 3.5 mph - N/A   Clear
2:25 PM 1.4 °F - -5.8 °F 72% 30.37 in 10.0 mi Calm Calm - N/A   Clear
2:45 PM 1.4 °F -6.2 °F -5.8 °F 72% 30.37 in 10.0 mi NE 3.5 mph - N/A   Clear
3:05 PM 1.4 °F - -5.8 °F 72% 30.37 in 10.0 mi Calm Calm - N/A   Clear
3:25 PM 1.4 °F - -4.0 °F 78% 30.38 in 10.0 mi Calm Calm - N/A   Clear
3:45 PM 1.4 °F -8.3 °F -5.8 °F 72% 30.37 in 10.0 mi NE 4.6 mph - N/A   Clear
4:05 PM 1.4 °F -6.2 °F -4.0 °F 78% 30.37 in 10.0 mi ENE 3.5 mph - N/A   Clear
4:25 PM 1.4 °F -6.2 °F -5.8 °F 72% 30.37 in 10.0 mi ENE 3.5 mph - N/A   Clear
4:45 PM 1.4 °F - -5.8 °F 72% 30.37 in 10.0 mi Calm Calm - N/A   Clear
5:05 PM 1.4 °F -8.3 °F -5.8 °F 72% 30.37 in 10.0 mi ESE 4.6 mph - N/A   Clear
5:25 PM -0.4 °F -12.0 °F -5.8 °F 78% 30.37 in 10.0 mi East 5.8 mph - N/A   Clear
5:45 PM -0.4 °F -10.4 °F -7.6 °F 72% 30.38 in 10.0 mi ESE 4.6 mph - N/A   Clear
6:05 PM -0.4 °F -10.4 °F -7.6 °F 72% 30.37 in 10.0 mi ESE 4.6 mph - N/A   Clear
6:25 PM -2.2 °F -12.5 °F -9.4 °F 71% 30.37 in 10.0 mi ESE 4.6 mph - N/A   Clear
6:45 PM -2.2 °F -14.2 °F -7.6 °F 78% 30.37 in 10.0 mi ESE 5.8 mph - N/A   Clear
7:05 PM -4.0 °F -12.4 °F -9.4 °F 78% 30.37 in 10.0 mi ESE 3.5 mph - N/A   Clear
7:25 PM -4.0 °F -14.6 °F -7.6 °F 85% 30.37 in 10.0 mi SSE 4.6 mph - N/A   Clear
7:45 PM -2.2 °F -12.5 °F -7.6 °F 78% 30.37 in 10.0 mi SSE 4.6 mph - N/A   Partly Cloudy
8:05 PM -2.2 °F -12.5 °F -7.6 °F 78% 30.37 in 10.0 mi SSE 4.6 mph - N/A   Mostly Cloudy
8:25 PM -4.0 °F -16.3 °F -9.4 °F 78% 30.37 in 10.0 mi ESE 5.8 mph - N/A   Overcast
8:45 PM -2.2 °F -15.6 °F -7.6 °F 78% 30.37 in 10.0 mi SSE 6.9 mph - N/A   Overcast
9:05 PM -2.2 °F -14.2 °F -7.6 °F 78% 30.37 in 10.0 mi SSE 5.8 mph - N/A   Overcast
9:25 PM -2.2 °F -14.2 °F -7.6 °F 78% 30.37 in 10.0 mi SE 5.8 mph - N/A   Overcast
9:45 PM -4.0 °F -16.3 °F -7.6 °F 85% 30.37 in 10.0 mi SSE 5.8 mph - N/A   Overcast
10:05 PM -4.0 °F - -7.6 °F 85% 30.37 in 10.0 mi North - - N/A   Overcast
10:25 PM -4.0 °F -17.8 °F -9.4 °F 78% 30.36 in 10.0 mi South 6.9 mph - N/A   Overcast
10:45 PM -4.0 °F - -9.4 °F 78% 30.36 in 10.0 mi North - - N/A   Overcast
11:05 PM -4.0 °F - -7.6 °F 85% 30.35 in 10.0 mi North - - N/A   Overcast
11:25 PM -4.0 °F - -7.6 °F 85% 30.35 in 10.0 mi North - - N/A   Overcast
11:45 PM -4.0 °F - -9.4 °F 78% 30.34 in 10.0 mi North - - N/A   Overcast